STARLINK-32472, 61846

Orbit data source: Space-Track

STARLINK-32472, 61846 is a payload satellite owned by SpaceX/Seattle (US) in LEO that was launched on Thu, 07 Nov 2024 UTC via an FALCON 9 launch vehicle from the Air Force Eastern Test Range (AFETR). Payload-class satellites include a variety of spacecraft equipped with specific instruments for various scientific and technological missions. These include communications satellites like Starlink; space stations such as the ISS; scientific satellites like the Hubble; Earth observation satellites from companies like Planet Labs, Umbra, and HawkEye 360; GPS; miniature CubeSats for education and research; and military/defense satellites.

Loading next visibility...
Identifier
61846, 2024-202B
Orbit
LEO
Country
Flag of USUS
Related business
Manufacturer
SpaceX/Seattle
Mission
Operational Commercial Communications
Bus & Motor
STARLINK V2M, Unknown motor
Mass
730 kg wet, ~700 kg dry
Launch date (UTC)
2024-11-07 (1 year ago)
Launch vehicle
FALCON 9
Launch site
Air Force Eastern Test Range (AFETR)
Object type
Payload
Rocket body
Debris
Shape & HBR
Box + 2 Pan, 17.7 m
Radar Cross Section
33.884 m², Large (>1 m²)

Expand to show TLE details & history
Last TLE update: 8 hours ago

TLE from 8 hours ago
0 STARLINK-32472
1 61846U 24202B   26035.42271066 -.00000399  00000-0 -49878-5 0  9993
2 61846  43.0023  55.1604 0000133 358.5313   1.5538 15.27571436 70364
Epoch: 2026-02-04T10:08Z
TLE epoch observation values (Epoch: 2026-02-04T10:08:42.201Z)
Latitude
-0.00002°
Longitude
128.39503°
Altitude
482.759 km
Speed
7.626 km/s
True Right ascension
03h 40m 38s
True Declination
0° 00' 00"
Sunlit
Object was in daylight at epoch
Visualization orbit readout
Latitude
Unknown
Longitude
Unknown
Altitude
Unknown
Speed
Unknown
Apparent Right ascension
Unknown
Apparent Declination
Unknown
Sunlit
N/A
Visualization observer readout
Local Sidereal Time
20:35:59
Azimuth
Unknown
Elevation
Unknown
Doppler factor
Unknown
Orbital elements
Apogee altitude
485.111 km
Perigee altitude
484.928 km
Semi-major axis
6,863.157 km
Eccentricity
0.00001
Inclination
43.0023°
RAAN
55.1604°
Arg. of periapsis
358.5313°
True anomaly
1.55384°
Mean anomaly
1.5538°
Eccentric anomaly
1.55382°
Mean motion
3.81731 °/min
Orbital period
94.31 mins
BSTAR
-0.0000049878
Loading maneuver chart data...
Computing Atmospheric mass density...
Loading historical data...
Loading historical data...
Loading historical data...
Loading historical data...
Loading historical data...
Loading historical data...
Loading historical data...

Documentation

Showing up to 5 results
|